LEBALEZL

Guest
Details From LEBA - Cordoba
To LEZL - Sevilla
Flight Number -
Tags generated
Created
Modified
Stats Distance 56 nm / 104 km
Max Altitude 1,300 ft / 396 m
Waypoints 3
Social Downloads 0
Likes 0
Share VATSIM

Download

Looking for another format? Having issues loading an existing format? Contact us
Advertisement - Login to hide

Notes

Basic altitude profile: - Ascent Rate: 2500ft/min - Ascent Speed: 90kts - Cruise Altitude: 35000ft - Cruise Speed: 90kts - Descent Rate: 500ft/min - Descent Speed: 90kts Options: - Use NATs: yes - Use PACOTS: yes - Use low airways: yes - Use high airways: yes

Route

LEBA SVL LEZL

ID Type Via Altitude Latitude Longitude Leg Dist Tot Dist Heading (true) Name
O LEBA APT - 0 ft / 0 m 37.84315˚ -4.84806˚ - 0 nm - Cordoba
SVL VOR - 1,300 ft / 396 m 37.42758˚ -5.76222˚ 50 nm 50 nm 240° / 240° SEVILLA VOR-DME
O LEZL APT - 0 ft / 0 m 37.41794˚ -5.89309˚ 6 nm 56 nm 265° / 265° Sevilla

Altitude Profile

Advertisement - Login to hide

LEBA

Details ICAO LEBA (ODB)
Name Cordoba
Region Spain
Timezone Europe/Madrid (UTC+2.0)
Stats Elevation 296 ft / 90 m (AMSL)
Location 37.843152° -4.848064°
Runways 1
Magnetic Variation 0.940° W

METAR

LEBA 280300Z AUTO 26004KT 9999 OVC014/// 16/13 Q1015

Decode

TAF

Not found

Departure Runways

ID Width Length Bearing (true) Bearing (mag) Surface Threshold Offset Overrun Length
03 197 ft / 60 m 7,224 ft / 2,202 m 28.69° 29.63° Asphalt 0 ft / 0 m 0 ft / 0 m
21 197 ft / 60 m 7,224 ft / 2,202 m 208.70° 209.64° Asphalt 1,939 ft / 591 m 0 ft / 0 m

LEZL

Details ICAO LEZL (SVQ)
Name Sevilla
Region Spain
Timezone Europe/Madrid (UTC+2.0)
Stats Elevation 111 ft / 34 m (AMSL)
Location 37.417939° -5.893093°
Runways 1
Magnetic Variation 1.244° W

METAR

LEZL 280300Z 19006KT 150V230 9999 FEW010 BKN035 16/15 Q1015 NOSIG

Decode

TAF

TAF LEZL 280200Z 2803/2903 22009KT CAVOK TX25/2814Z TN17/2900Z PROB40 TEMPO 2803/2808 4000 BR BKN009 PROB40 TEMPO 2812/2818 23015G25KT

Decode

Destination Runways

ID Width Length Bearing (true) Bearing (mag) Surface Threshold Offset Overrun Length
09 148 ft / 45 m 11,008 ft / 3,355 m 89.75° 90.99° Asphalt 0 ft / 0 m 0 ft / 0 m
27 148 ft / 45 m 11,008 ft / 3,355 m 269.77° 271.01° Asphalt 0 ft / 0 m 0 ft / 0 m

Approach Navaids

Runway Type Ident Frequency Range Bearing (true) Bearing (mag) Slope Elevation
09 Localiser ISE 111.10 MHz 18 nm / 33 km 89.77° 91.01° - 111 ft / 34 m (AMSL)
09 Glidescope ISE 111.10 MHz 10 nm / 19 km 89.76° 91.00° 3.00° 111 ft / 34 m (AMSL)
09 DME ISE 111.10 MHz 18 nm / 33 km - - - 102 ft / 31 m (AMSL)
27 Localiser ISV 110.10 MHz 18 nm / 33 km 269.74° 270.98° - 111 ft / 34 m (AMSL)
27 Glidescope ISV 110.10 MHz 10 nm / 19 km 269.76° 271.00° 3.00° 22 ft / 7 m (AMSL)
27 DME ISV 110.10 MHz 18 nm / 33 km - - - 22 ft / 7 m (AMSL)

Popular Alternatives